Regional Weather Roundup
Issued by NWS

Home | Current Version | Previous Version | Graphics & Text | Print | Product List | Glossary On
Versions: 1 2 3 4 5 6 7 8 9 10 11 12 13 14 15 16 17 18 19 20 21 22 23 24 25 26 27 28 29 30 31 32 33 34 35 36 37 38 39 40 41 42 43 44 45 46 47 48 49 50
000
ASUS43 KLMK 261302
RWRKY
KENTUCKY REGIONAL WEATHER ROUNDUP
NATIONAL WEATHER SERVICE LOUISVILLE KY
900 AM EDT THU MAY 26 2016

NOTE "FAIR" INDICATES FEW OR NO CLOUDS BELOW 12,000 FEET
WITH NO SIGNIFICANT WEATHER AND/OR OBSTRUCTIONS TO VISIBILITY.

KYZ001>023-026-027-061>063-070>075-261400-
WESTERN AND SOUTH CENTRAL KENTUCKY

CITY           SKY/WX    TMP DP  RH WIND       PRES   REMARKS
PADUCAH        CLOUDY    73  65  75 SW9       30.02S
HENDERSON      SUNNY     72  63  73 SW10      30.02R
OWENSBORO      MOSUNNY   73  65  76 S9        30.04F
HOPKINSVILLE   NOT AVBL
BOWLING GREEN  SUNNY     72  64  76 S8        30.09S
GLASGOW        NOT AVBL
$$

KYZ024-025-028>034-038-045-046-053-261400-
NORTH CENTRAL KENTUCKY

CITY           SKY/WX    TMP DP  RH WIND       PRES   REMARKS
LOUISVILLE/SDF PTSUNNY   71  63  75 S13       30.08S
LOUISVILLE/LOU PTSUNNY   70  62  76 SE7       30.09S
FORT KNOX      NOT AVBL
$$

KYZ035>037-039>044-047>052-055>060-089>105-261400-
NORTHEAST KENTUCKY

CITY           SKY/WX    TMP DP  RH WIND       PRES   REMARKS
LEXINGTON      CLOUDY    65  62  90 SE8       30.14S
COVINGTON      PTSUNNY   69  63  81 SW10G18   30.10R
FRANKFORT      CLOUDY    68  62  81 S12       30.11S
$$

KYZ054-064>069-076>088-106>120-261400-
SOUTHEAST KENTUCKY

CITY           SKY/WX    TMP DP  RH WIND       PRES   REMARKS
JACKSON        CLOUDY    65  63  93 CALM      30.20R FOG
LONDON         LGT RAIN  65  62  90 S5        30.21R
SOMERSET       NOT AVBL
MIDDLESBORO    NOT AVBL
MONTICELLO     CLOUDY    66  64  93 VRB7      30.17F
$$





USA.gov is the U.S. government's official web portal to all federal, state and local government web resources and services.